Weather History for Houston, TX

Change the Weather History Date:

Sunday, November 25, 2012

  Actual Average Record
Temperature  
Mean Temperature 57 °F 59 °F  
Max Temperature 75 °F 69 °F 86 °F (1967)
Min Temperature 39 °F 49 °F 29 °F (1950)
Degree Days  
Heating Degree Days 8 7  
Month to date heating degree days 97 114  
Since 1 July heating degree days 137 144  
Growing Degree Days 10 (Base 50)    
Moisture  
Dew Point 51 °F    
Average Humidity 70    
Maximum Humidity 93    
Minimum Humidity 46    
Precipitation  
Precipitation 0.00 in 0.14 in 1.70 in (1987)
Month to date precipitation 0.59 3.62  
Year to date precipitation 39.41 45.31  
Sea Level Pressure  
Sea Level Pressure 30.08 in    
Wind  
Wind Speed 3 mph (SE)    
Max Wind Speed 16 mph    
Max Gust Speed 20 mph    
Visibility 10 miles    
Events      
T = Trace of Precipitation, MM = Missing Value Source: NWS Daily Summary

Daily Weather History Graph

Daily Weather History Graph

Search for Another Location

Airport:

Trip Planner

Search our weather history database for the weather conditions in past years. The results will help you decide how hot, cold, wet, or windy it might be!

Date:

Astronomy

Nov. 25, 2012 Rise Set
Actual Time 6:54 AM CST 5:22 PM CST
Civil Twilight 6:28 AM CST 5:47 PM CST
Nautical Twilight 5:59 AM CST 6:17 PM CST
Astronomical Twilight 5:30 AM CST 6:45 PM CST
Moon 3:32 PM CST (11/25) 4:17 AM CST (11/25)
Length of Visible Light 11h 19m
Length of Day
10h 28m
Waxing Gibbous, 93% of the Moon is Illuminated
Nov 25
Waxing Gibbous
Nov 28
Full
Dec 6
Last Quarter
Dec 13
New
Dec 19
First Quarter

Hourly Weather History & Observations

Time (CST) Temp. Dew Point Humidity Pressure Visibility Wind Dir Wind Speed Gust Speed Precip Events Conditions
12:53 AM 46.9 °F 37.9 °F 71% 30.17 in 10.0 mi Calm Calm - N/A   Clear
1:53 AM 46.0 °F 39.0 °F 76% 30.16 in 10.0 mi Calm Calm - N/A   Partly Cloudy
2:53 AM 46.0 °F 39.9 °F 79% 30.14 in 10.0 mi Calm Calm - N/A   Clear
3:53 AM 45.0 °F 39.9 °F 82% 30.14 in 10.0 mi Calm Calm - N/A   Clear
4:53 AM 45.0 °F 39.9 °F 82% 30.13 in 10.0 mi Calm Calm - N/A   Clear
5:53 AM 45.0 °F 39.9 °F 82% 30.13 in 10.0 mi Calm Calm - N/A   Clear
6:53 AM 45.0 °F 39.9 °F 82% 30.13 in 10.0 mi Calm Calm - N/A   Clear
7:53 AM 51.1 °F 44.1 °F 77% 30.14 in 10.0 mi Calm Calm - N/A   Clear
8:53 AM 57.9 °F 50.0 °F 75% 30.16 in 10.0 mi ESE 3.5 mph - N/A   Clear
9:53 AM 64.9 °F 52.0 °F 63% 30.16 in 10.0 mi SSE 5.8 mph - N/A   Clear
10:53 AM 69.1 °F 53.1 °F 57% 30.14 in 10.0 mi South 6.9 mph - N/A   Partly Cloudy
11:53 AM 73.0 °F 54.0 °F 51% 30.10 in 10.0 mi SSE 8.1 mph - N/A   Partly Cloudy
12:53 PM 75.0 °F 53.1 °F 46% 30.06 in 10.0 mi South 12.7 mph - N/A   Partly Cloudy
1:53 PM 73.9 °F 55.0 °F 52% 30.04 in 10.0 mi South 8.1 mph - N/A   Mostly Cloudy
2:53 PM 75.0 °F 55.9 °F 51% 30.01 in 10.0 mi SSE 10.4 mph 16.1 mph N/A   Scattered Clouds
3:53 PM 73.0 °F 57.0 °F 57% 30.01 in 10.0 mi South 10.4 mph - N/A   Scattered Clouds
4:53 PM 72.0 °F 57.9 °F 61% 30.01 in 10.0 mi SSE 8.1 mph - N/A   Scattered Clouds
5:53 PM 69.1 °F 59.0 °F 70% 30.00 in 10.0 mi SE 6.9 mph - N/A   Scattered Clouds
6:53 PM 66.9 °F 59.0 °F 76% 30.01 in 10.0 mi ESE 5.8 mph - N/A   Scattered Clouds
7:53 PM 66.9 °F 60.1 °F 79% 30.01 in 10.0 mi ESE 6.9 mph - N/A   Mostly Cloudy
8:53 PM 66.0 °F 61.0 °F 84% 30.01 in 10.0 mi ESE 5.8 mph - N/A   Scattered Clouds
9:53 PM 64.9 °F 61.0 °F 87% 30.01 in 10.0 mi ESE 4.6 mph - N/A   Scattered Clouds
10:53 PM 64.9 °F 62.1 °F 90% 30.01 in 10.0 mi ESE 3.5 mph - N/A   Partly Cloudy
11:53 PM 64.0 °F 62.1 °F 93% 29.99 in 8.0 mi SE 3.5 mph - N/A   Partly Cloudy